GW3580 Weather Reports


time (UTC)temp
F
wind
direction
speed
knots
gust
knots
rain 1hr
in
rain 24hr
in
rain mn
in
humidity
%
barometer
mb
20260505171043 59 259 1.7 1.7 0.00 0.00 0.00 66 1014.3
20260505170539 59 280 1.7 1.7 0.00 0.00 0.00 67 1014.5
20260505170036 58 272 0.0 0.9 0.00 0.00 0.00 68 1014.5
20260505165531 58 246 4.3 5.2 0.00 0.00 0.00 68 1014.6
20260505165027 58 253 1.7 1.7 0.00 0.00 0.00 68 1014.4
20260505164523 58 230 1.7 1.7 0.00 0.00 0.00 70 1014.3
20260505164021 57 282 1.7 1.7 0.00 0.00 0.00 71 1014.4
20260505163519 57 262 1.7 1.7 0.00 0.00 0.00 71 1014.2
20260505163016 56 271 4.3 5.2 0.00 0.00 0.00 72 1014.1
20260505162509 56 250 3.5 4.3 0.00 0.00 0.00 73 1014.2
20260505162006 55 273 4.3 5.2 0.00 0.00 0.00 73 1014.0
20260505161503 55 292 2.6 3.5 0.00 0.00 0.00 75 1014.0
20260505161000 55 19 0.0 0.0 0.00 0.00 0.00 75 1014.2
20260505160458 55 262 0.9 0.9 0.00 0.00 0.00 76 1014.3
20260505152934 54 261 0.0 0.0 0.00 0.00 0.00 78 1014.1
20260505152432 54 303 1.7 1.7 0.00 0.00 0.00 78 1014.2
20260505151931 54 357 0.9 0.9 0.00 0.00 0.00 78 1014.0
20260505151422 54 247 0.9 1.7 0.00 0.00 0.00 79 1014.0
20260505150920 54 284 0.9 1.7 0.00 0.00 0.00 79 1013.9
20260505150416 54 260 2.6 3.5 0.00 0.00 0.00 79 1013.8
20260505140346 53 263 1.7 1.7 0.00 0.00 0.00 81 1013.4
20260505130309 53 4 0.9 1.7 0.00 0.00 0.00 83 1013.1
20260505124800 53 238 1.7 1.7 0.00 0.00 0.00 83 1013.1
20260505124257 53 259 1.7 1.7 0.00 0.00 0.00 83 1013.0
20260505123752 53 266 0.9 0.9 0.00 0.00 0.00 83 1012.9
20260505123249 53 233 1.7 1.7 0.00 0.00 0.00 82 1013.1
20260505122745 53 266 0.9 1.7 0.00 0.00 0.00 82 1013.1
20260505122243 53 264 1.7 3.5 0.00 0.00 0.00 82 1013.1
20260505121739 53 270 0.9 0.9 0.00 0.00 0.00 82 1013.2
20260505121236 53 243 2.6 3.5 0.00 0.00 0.00 82 1013.0
20260505120732 53 193 0.9 1.7 0.00 0.00 0.00 82 1012.9
20260505120229 53 275 2.6 3.5 0.00 0.00 0.00 82 1012.9
20260505115727 53 242 2.6 4.3 0.00 0.00 0.00 82 1013.1
20260505115225 53 220 1.7 1.7 0.00 0.00 0.00 82 1013.0
20260505114722 53 263 4.3 7.8 0.00 0.00 0.00 82 1013.0
20260505114218 53 257 2.6 3.5 0.00 0.00 0.00 82 1012.9
20260505113715 54 263 0.9 1.7 0.00 0.00 0.00 82 1012.9
20260505113212 54 261 3.5 4.3 0.00 0.00 0.00 81 1013.0
20260505112708 54 233 1.7 1.7 0.00 0.00 0.00 81 1012.9
20260505112206 54 266 0.9 1.7 0.00 0.00 0.00 80 1012.9
20260505111705 54 255 3.5 4.3 0.00 0.00 0.00 80 1013.0
20260505111202 54 259 2.6 4.3 0.00 0.00 0.00 79 1013.0
20260505110658 55 267 2.6 4.3 0.00 0.00 0.00 79 1012.9
20260505110155 55 264 2.6 4.3 0.00 0.00 0.00 78 1012.9
20260505102131 56 263 2.6 4.3 0.00 0.00 0.00 74 1012.8
20260505101629 56 239 2.6 3.5 0.00 0.00 0.00 74 1013.0
20260505101125 56 253 2.6 3.5 0.00 0.00 0.00 74 1012.9
20260505100621 56 196 3.5 4.3 0.00 0.00 0.00 74 1012.9
20260505100119 56 277 2.6 3.5 0.00 0.00 0.00 74 1012.9
20260505095615 56 258 1.7 1.7 0.00 0.00 0.00 74 1013.0
20260505095111 57 239 2.6 3.5 0.00 0.00 0.00 74 1012.9
20260505094608 57 277 2.6 3.5 0.00 0.00 0.00 74 1012.8
20260505094104 57 238 2.6 3.5 0.00 0.00 0.00 74 1012.9
20260505093600 57 272 1.7 1.7 0.00 0.00 0.00 74 1013.0
20260505093058 57 269 4.3 5.2 0.00 0.00 0.00 74 1013.0
20260505092555 57 241 2.6 4.3 0.00 0.00 0.00 74 1013.1
20260505092054 57 264 2.6 3.5 0.00 0.00 0.00 73 1013.1
20260505091550 57 254 2.6 3.5 0.00 0.00 0.00 74 1012.9
20260505091049 57 267 2.6 3.5 0.00 0.00 0.00 74 1013.1
20260505090546 57 244 2.6 4.3 0.00 0.00 0.00 74 1013.0
20260505090044 57 239 1.7 3.5 0.00 0.00 0.00 74 1012.9
20260505085541 56 265 2.6 3.5 0.00 0.00 0.00 75 1013.0
20260505085039 56 236 1.7 1.7 0.00 0.00 0.00 75 1013.0
20260505084537 56 245 0.0 0.9 0.00 0.00 0.00 75 1012.9
20260505084035 56 260 2.6 3.5 0.00 0.00 0.00 74 1013.1
20260505083532 56 292 4.3 6.1 0.00 0.00 0.00 74 1013.0
20260505083028 56 296 1.7 1.7 0.00 0.00 0.00 74 1012.9
20260505082524 56 262 1.7 1.7 0.00 0.00 0.00 74 1012.9
20260505082021 56 265 3.5 4.3 0.00 0.00 0.00 74 1013.2
20260505081518 56 236 0.9 1.7 0.00 0.00 0.00 74 1013.0
20260505081015 56 286 1.7 1.7 0.00 0.00 0.00 73 1013.1
20260505080511 56 264 2.6 3.5 0.00 0.00 0.00 73 1013.2
20260505080008 56 295 1.7 3.5 0.00 0.00 0.00 73 1013.1
20260505075504 56 266 3.5 4.3 0.00 0.00 0.00 73 1013.3
20260505075001 56 293 2.6 3.5 0.00 0.00 0.00 73 1013.4
20260505074458 56 292 0.9 0.9 0.00 0.00 0.00 73 1013.0
20260505073955 56 250 2.6 3.5 0.00 0.00 0.00 73 1013.2
20260505073452 56 250 1.7 1.7 0.00 0.00 0.00 72 1013.1
20260505072950 57 260 1.7 1.7 0.00 0.00 0.00 71 1013.3
20260505072446 57 308 0.9 0.9 0.00 0.00 0.00 71 1013.2
20260505071942 57 285 0.9 1.7 0.00 0.00 0.00 72 1013.0
20260505071438 57 266 0.9 0.9 0.00 0.00 0.00 72 1013.1
20260505070937 57 261 2.6 3.5 0.00 0.00 0.00 72 1013.1
20260505070433 57 283 2.6 3.5 0.00 0.00 0.00 71 1013.2
20260505065929 57 274 0.9 0.9 0.00 0.00 0.00 72 1013.2
20260505065425 57 261 1.7 1.7 0.00 0.00 0.00 71 1013.0
20260505064922 57 262 0.9 0.9 0.00 0.00 0.00 71 1013.2
20260505064419 57 265 0.9 0.9 0.00 0.00 0.00 70 1013.2
20260505063918 57 272 0.9 1.7 0.00 0.00 0.00 70 1013.1
20260505063414 57 263 1.7 1.7 0.00 0.00 0.00 70 1013.0
20260505062910 57 249 1.7 1.7 0.00 0.00 0.00 69 1013.2
20260505062408 57 267 1.7 1.7 0.00 0.00 0.00 69 1013.1
20260505061904 57 251 1.7 4.3 0.00 0.00 0.00 70 1013.2
20260505061402 57 262 2.6 3.5 0.00 0.00 0.00 70 1013.2
20260505060859 57 258 1.7 1.7 0.00 0.00 0.00 71 1013.2
20260505060356 57 274 0.9 0.9 0.00 0.00 0.00 71 1013.2
20260505055852 57 254 1.7 1.7 0.00 0.00 0.00 71 1013.4
20260505055348 58 281 1.7 1.7 0.00 0.00 0.00 73 1013.3
20260505054846 58 13 0.0 0.0 0.00 0.00 0.00 73 1013.1
20260505054343 58 264 0.0 0.0 0.00 0.00 0.00 73 1013.3
20260505053841 58 330 0.0 0.0 0.00 0.00 0.00 73 1013.5
20260505053338 58 267 0.9 0.9 0.00 0.00 0.00 72 1013.2
20260505052834 58 252 1.7 1.7 0.00 0.00 0.00 72 1013.2
20260505052331 59 242 0.9 0.9 0.00 0.00 0.00 72 1013.5
20260505051829 59 258 0.9 0.9 0.00 0.00 0.00 69 1013.4
20260505051326 59 267 0.9 1.7 0.00 0.00 0.00 69 1013.4
20260505050824 59 281 0.9 0.9 0.00 0.00 0.00 69 1013.2
20260505050322 59 270 0.9 0.9 0.00 0.00 0.00 68 1013.4
20260505041752 59 277 0.9 0.9 0.00 0.00 0.00 66 1013.3
20260505041249 59 275 0.9 0.9 0.00 0.00 0.00 66 1013.2
20260505040747 59 282 0.9 0.9 0.00 0.00 0.00 67 1013.1
20260505040244 59 248 0.9 0.9 0.00 0.00 0.00 67 1013.0
20260505035741 59 266 0.9 0.9 0.00 0.00 0.00 67 1013.1
20260505035236 59 264 0.0 0.0 0.00 0.00 0.00 67 1013.2
20260505034733 59 264 0.0 0.0 0.00 0.00 0.00 67 1012.9
20260505034230 59 263 0.9 0.9 0.00 0.00 0.00 67 1013.0
20260505033727 59 270 0.9 0.9 0.00 0.00 0.00 67 1013.0
20260505033225 59 291 0.9 0.9 0.00 0.00 0.00 67 1012.8
20260505032723 59 277 1.7 1.7 0.00 0.00 0.00 68 1012.9
20260505032218 59 349 0.0 0.0 0.00 0.00 0.00 68 1012.6
20260505031716 59 0 0.0 0.0 0.00 0.00 0.00 67 1012.9
20260505031212 59 331 0.0 0.0 0.00 0.00 0.00 67 1012.9
20260505030709 59 335 0.0 0.0 0.00 0.00 0.00 67 1012.9
20260505030205 59 255 0.9 1.7 0.00 0.00 0.00 66 1012.8
20260505025701 59 263 0.0 0.0 0.00 0.00 0.00 65 1012.8
20260505025159 59 282 1.7 1.7 0.00 0.00 0.00 65 1012.8
20260505024657 59 271 0.9 0.9 0.00 0.00 0.00 65 1012.7
20260505024154 59 279 1.7 1.7 0.00 0.00 0.00 64 1012.7
20260505023651 59 258 0.0 0.9 0.00 0.00 0.00 65 1012.7
20260505023149 59 287 0.9 0.9 0.00 0.00 0.00 65 1012.6
20260505022646 59 327 0.0 0.0 0.00 0.00 0.00 64 1012.6
20260505022143 60 335 0.0 0.0 0.00 0.00 0.00 64 1012.9
20260505021639 60 281 0.9 0.9 0.00 0.00 0.00 63 1012.6
20260505021136 60 1 0.0 0.0 0.00 0.00 0.00 63 1012.8
20260505020632 60 2 0.0 0.0 0.00 0.00 0.00 62 1012.5
20260505020128 60 3 0.0 0.0 0.00 0.00 0.00 61 1012.8
20260505015626 60 38 0.0 0.0 0.00 0.00 0.00 63 1012.8
20260505015122 60 39 0.0 0.0 0.00 0.00 0.00 63 1012.9
20260505014619 60 37 0.9 0.9 0.00 0.00 0.00 62 1012.6
20260505014116 60 38 0.0 0.0 0.00 0.00 0.00 62 1012.8
20260505013613 60 52 0.0 0.0 0.00 0.00 0.00 62 1013.1
20260505013110 61 34 0.9 0.9 0.00 0.00 0.00 60 1013.1
20260505012609 61 25 0.0 0.0 0.00 0.00 0.00 60 1012.9
20260505012105 61 9 0.0 0.0 0.00 0.00 0.00 59 1013.1
20260505011600 61 28 0.0 0.0 0.00 0.00 0.00 59 1013.0
20260505011058 61 29 0.9 1.7 0.00 0.00 0.00 59 1012.8
20260505010553 61 40 0.0 0.0 0.00 0.00 0.00 58 1013.0
20260505010050 61 19 0.0 0.9 0.00 0.00 0.00 59 1013.0
20260505005546 61 14 0.0 0.0 0.00 0.00 0.00 59 1013.2
20260505005044 61 355 0.9 1.7 0.00 0.00 0.00 59 1013.1
20260505004541 61 13 0.0 0.9 0.00 0.00 0.00 60 1013.2
20260505004038 61 25 0.0 0.0 0.00 0.00 0.00 60 1013.2
20260505003535 61 55 0.9 0.9 0.00 0.00 0.00 60 1013.1
20260505003032 60 21 1.7 1.7 0.00 0.00 0.00 60 1013.3
20260505002526 60 61 1.7 1.7 0.00 0.00 0.00 61 1013.4
20260505002026 60 35 1.7 1.7 0.00 0.00 0.00 61 1013.4
20260505001522 60 58 1.7 1.7 0.00 0.00 0.00 61 1013.2
20260505001020 61 77 1.7 1.7 0.00 0.00 0.00 62 1013.4
20260505000517 61 39 0.9 1.7 0.00 0.00 0.00 61 1013.2
20260505000015 61 54 0.9 0.9 0.00 0.00 0.00 60 1013.5
20260504235511 61 26 0.9 0.9 0.00 0.00 0.00 59 1013.4
20260504235007 61 69 0.0 0.9 0.00 0.00 0.00 60 1013.7
20260504234505 62 7 1.7 3.5 0.00 0.00 0.00 59 1013.5
20260504234001 62 56 0.0 0.0 0.00 0.00 0.00 59 1013.6
20260504233456 62 22 0.0 0.0 0.00 0.00 0.00 59 1013.6
20260504232954 61 359 0.0 0.0 0.00 0.00 0.00 58 1013.5
20260504232451 62 15 3.5 4.3 0.00 0.00 0.00 57 1013.5
20260504231948 62 65 0.9 0.9 0.00 0.00 0.00 59 1013.5
20260504231444 61 80 1.7 3.5 0.00 0.00 0.00 61 1013.5
20260504230941 62 73 1.7 3.5 0.00 0.00 0.00 60 1013.6
20260504230437 61 76 1.7 3.5 0.00 0.00 0.00 60 1013.6
20260504225937 62 103 4.3 5.2 0.00 0.00 0.00 60 1013.7
20260504225433 61 3 1.7 3.5 0.00 0.00 0.00 61 1013.9
20260504224930 61 72 1.7 1.7 0.00 0.00 0.00 61 1013.9
20260504224427 61 1 0.9 3.5 0.00 0.00 0.00 61 1013.8
20260504223924 61 353 2.6 3.5 0.00 0.00 0.00 61 1014.0
20260504223419 61 29 0.9 1.7 0.00 0.00 0.00 60 1014.0
20260504222916 61 10 0.9 0.9 0.00 0.00 0.00 59 1013.9
20260504222413 61 48 0.0 0.0 0.00 0.00 0.00 60 1014.1
20260504221911 60 48 0.0 0.0 0.00 0.00 0.00 59 1014.2
20260504221408 60 32 0.9 1.7 0.00 0.00 0.00 60 1014.0
20260504220905 60 61 0.0 0.9 0.00 0.00 0.00 60 1014.1
20260504220401 60 64 0.9 0.9 0.00 0.00 0.00 61 1014.2
20260504215859 60 57 0.0 0.0 0.00 0.00 0.00 61 1014.4
20260504215355 60 91 1.7 1.7 0.00 0.00 0.00 61 1014.5
20260504214852 60 34 0.0 0.0 0.00 0.00 0.00 60 1014.4
20260504214348 60 38 0.9 0.9 0.00 0.00 0.00 60 1014.3
20260504213845 60 24 0.9 0.9 0.00 0.00 0.00 61 1014.4
20260504213340 60 38 0.0 0.0 0.00 0.00 0.00 61 1014.6
20260504212838 60 59 0.9 0.9 0.00 0.00 0.00 60 1014.6
20260504212334 60 47 0.9 0.9 0.00 0.00 0.00 60 1014.4
20260504211832 60 6 1.7 3.5 0.00 0.00 0.00 60 1014.6
20260504211328 60 57 0.9 1.7 0.00 0.00 0.00 60 1014.8
20260504210826 60 14 0.9 0.9 0.00 0.00 0.00 60 1014.6
20260504210323 60 46 1.7 3.5 0.00 0.00 0.00 60 1014.6
20260504205820 60 54 0.0 0.0 0.00 0.00 0.00 59 1014.7
20260504205318 60 23 0.9 0.9 0.00 0.00 0.00 59 1014.6
20260504204815 60 43 0.9 0.9 0.00 0.00 0.00 60 1014.7
20260504204314 60 79 0.0 0.9 0.00 0.00 0.00 59 1014.7
20260504203813 60 267 0.0 0.0 0.00 0.00 0.00 61 1014.6
20260504203309 60 15 0.0 0.0 0.00 0.00 0.00 59 1014.7
20260504202804 60 265 0.9 0.9 0.00 0.00 0.00 58 1014.7
20260504202304 60 309 0.0 0.9 0.00 0.00 0.00 58 1014.7
20260504201759 60 305 0.9 0.9 0.00 0.00 0.00 58 1014.6
20260504201256 61 249 1.7 1.7 0.00 0.00 0.00 58 1014.6
20260504200754 61 242 2.6 3.5 0.00 0.00 0.00 58 1014.6
20260504200249 60 338 0.9 0.9 0.00 0.00 0.00 59 1014.4
20260504195746 61 0 0.0 0.0 0.00 0.00 0.00 59 1014.5
20260504195242 61 299 0.9 0.9 0.00 0.00 0.00 59 1014.7
20260504194739 61 261 0.9 0.9 0.00 0.00 0.00 59 1014.6
20260504194235 60 54 0.9 0.9 0.00 0.00 0.00 58 1014.8
20260504193732 60 181 0.0 0.0 0.00 0.00 0.00 61 1014.8
20260504193229 59 182 0.0 0.9 0.00 0.00 0.00 62 1014.9
20260504192728 59 266 1.7 1.7 0.00 0.00 0.00 61 1014.9
20260504192225 59 328 0.0 0.0 0.00 0.00 0.00 62 1015.0
20260504191724 59 230 0.0 0.9 0.00 0.00 0.00 62 1014.9
20260504191220 59 213 0.0 0.9 0.00 0.00 0.00 62 1015.0
20260504190715 58 292 1.7 1.7 0.00 0.00 0.00 62 1015.2
20260504190212 58 276 0.9 1.7 0.00 0.00 0.00 63 1015.0
20260504185709 58 209 0.9 1.7 0.00 0.00 0.00 62 1015.0
20260504185205 59 273 0.9 0.9 0.00 0.00 0.00 62 1015.0
20260504184702 58 339 0.0 0.0 0.00 0.00 0.00 62 1014.9
20260504184157 58 292 1.7 3.5 0.00 0.00 0.00 63 1015.2
20260504183654 58 246 0.9 0.9 0.00 0.00 0.00 64 1015.0
20260504183151 58 280 0.9 1.7 0.00 0.00 0.00 64 1015.0
20260504182649 58 270 1.7 1.7 0.00 0.00 0.00 64 1015.2
20260504182146 58 295 0.0 0.9 0.00 0.00 0.00 63 1015.1
20260504181644 58 262 1.7 1.7 0.00 0.00 0.00 62 1015.2
20260504181141 58 285 0.9 0.9 0.00 0.00 0.00 63 1015.2
20260504180640 58 213 2.6 4.3 0.00 0.00 0.00 63 1014.9
20260504180138 58 260 0.9 0.9 0.00 0.00 0.00 64 1015.1
20260504175635 58 264 1.7 1.7 0.00 0.00 0.00 64 1014.9
20260504175132 58 287 2.6 3.5 0.00 0.00 0.00 63 1014.9
20260504174630 58 283 2.6 3.5 0.00 0.00 0.00 64 1014.9
20260504174126 58 266 1.7 1.7 0.00 0.00 0.00 64 1014.8
20260504173624 58 266 4.3 5.2 0.00 0.00 0.00 64 1014.6
20260504173121 58 263 2.6 3.5 0.00 0.00 0.00 64 1014.7
20260504172617 57 265 1.7 1.7 0.00 0.00 0.00 65 1014.6
20260504172114 57 240 3.5 4.3 0.00 0.00 0.00 65 1014.7
20260504171610 58 275 2.6 6.1 0.00 0.00 0.00 64 1014.4